LRBV Weather Reports


time (UTC)temp
C
wind
direction
speed
KPH
gust
KPH
rain 1hr
cm
rain 24hr
cm
rain mn
cm
humidity
%
barometer
mb
20260508033351 12 220 8.0 0.0 0.00 0.00 0.00 100 1016.0
20260508031848 12 230 4.8 0.0 0.00 0.00 0.00 94 1016.0
20260508030351 12 230 4.8 0.0 0.00 0.00 0.00 94 1016.0
20260508024851 12 160 4.8 0.0 0.00 0.00 0.00 94 1016.0
20260508023351 12 160 4.8 0.0 0.00 0.00 0.00 94 1016.0
20260508021852 12 0 0.0 0.0 0.00 0.00 0.00 94 1016.0
20260508020351 12 0 0.0 0.0 0.00 0.00 0.00 94 1016.0
20260508014848 13 4.8 0.0 0.00 0.00 0.00 88 1016.0
20260508013351 13 4.8 0.0 0.00 0.00 0.00 88 1016.0
20260508011851 12 310 11.3 0.0 0.00 0.00 0.00 94 1016.0
20260508010350 12 310 11.3 0.0 0.00 0.00 0.00 94 1016.0
20260508004851 13 310 8.0 0.0 0.00 0.00 0.00 88 1016.0
20260508003350 13 310 8.0 0.0 0.00 0.00 0.00 88 1016.0
20260508001847 13 270 9.7 0.0 0.00 0.00 0.00 88 1016.0
20260508000350 13 270 9.7 0.0 0.00 0.00 0.00 88 1016.0
20260507234848 15 290 12.9 0.0 0.00 0.00 0.00 82 1016.0
20260507233350 15 290 12.9 0.0 0.00 0.00 0.00 82 1016.0
20260507231847 15 290 12.9 0.0 0.00 0.00 0.00 77 1016.0
20260507230350 15 290 12.9 0.0 0.00 0.00 0.00 77 1016.0
20260507224850 16 270 11.3 0.0 0.00 0.00 0.00 68 1016.0
20260507223512 16 270 11.3 0.0 0.00 0.00 0.00 68 1016.0
20260507221848 17 270 11.3 0.0 0.00 0.00 0.00 64 1016.0
20260507220350 17 270 11.3 0.0 0.00 0.00 0.00 64 1016.0
20260507214850 17 4.8 0.0 0.00 0.00 0.00 64 1016.0
20260507213352 17 4.8 0.0 0.00 0.00 0.00 64 1016.0
20260507211851 16 200 11.3 0.0 0.00 0.00 0.00 72 1016.0
20260507210351 16 200 11.3 0.0 0.00 0.00 0.00 72 1016.0
20260507204851 17 220 11.3 0.0 0.00 0.00 0.00 68 1015.0
20260507203351 17 220 11.3 0.0 0.00 0.00 0.00 68 1015.0
20260507201848 17 230 12.9 0.0 0.00 0.00 0.00 64 1015.0
20260507200351 17 230 12.9 0.0 0.00 0.00 0.00 64 1015.0
20260507194856 17 210 16.1 0.0 0.00 0.00 0.00 68 1015.0
20260507193350 17 210 16.1 0.0 0.00 0.00 0.00 68 1015.0
20260507191847 16 210 11.3 0.0 0.00 0.00 0.00 77 1015.0
20260507190351 16 210 11.3 0.0 0.00 0.00 0.00 77 1015.0
20260507184853 17 240 12.9 0.0 0.00 0.00 0.00 64 1015.0
20260507183350 17 240 12.9 0.0 0.00 0.00 0.00 64 1015.0
20260507181851 18 230 17.7 0.0 0.00 0.00 0.00 52 1015.0
20260507180350 18 230 17.7 0.0 0.00 0.00 0.00 52 1015.0
20260507174850 18 230 27.4 0.0 0.00 0.00 0.00 52 1014.0
20260507173351 18 230 27.4 0.0 0.00 0.00 0.00 52 1014.0
20260507171851 20 220 25.7 0.0 0.00 0.00 0.00 46 1014.0
20260507170350 20 220 25.7 0.0 0.00 0.00 0.00 46 1014.0
20260507164851 21 230 29.0 0.0 0.00 0.00 0.00 43 1014.0
20260507163351 21 230 29.0 0.0 0.00 0.00 0.00 43 1014.0
20260507161850 22 230 29.0 0.0 0.00 0.00 0.00 41 1014.0
20260507160350 22 230 29.0 0.0 0.00 0.00 0.00 41 1014.0
20260507154851 22 220 33.8 0.0 0.00 0.00 0.00 38 1014.0
20260507153351 22 220 33.8 0.0 0.00 0.00 0.00 38 1014.0
20260507151851 22 220 35.4 0.0 0.00 0.00 0.00 36 1014.0
20260507150350 22 220 35.4 0.0 0.00 0.00 0.00 36 1014.0
20260507144850 25 220 37.0 0.0 0.00 0.00 0.00 30 1013.0
20260507143352 25 220 37.0 0.0 0.00 0.00 0.00 30 1013.0
20260507141851 25 220 37.0 0.0 0.00 0.00 0.00 30 1013.0
20260507140350 25 220 37.0 0.0 0.00 0.00 0.00 30 1013.0
20260507134851 26 220 32.2 0.0 0.00 0.00 0.00 26 1013.0
20260507133350 26 220 32.2 0.0 0.00 0.00 0.00 26 1013.0
20260507131847 26 220 29.0 0.0 0.00 0.00 0.00 28 1014.0
20260507130350 26 220 29.0 0.0 0.00 0.00 0.00 28 1014.0
20260507124847 26 230 25.7 0.0 0.00 0.00 0.00 30 1014.0
20260507123429 26 230 25.7 0.0 0.00 0.00 0.00 30 1014.0
20260507121850 26 220 24.1 0.0 0.00 0.00 0.00 28 1014.0
20260507120350 26 220 24.1 0.0 0.00 0.00 0.00 28 1014.0
20260507114850 25 200 12.9 0.0 0.00 0.00 0.00 30 1014.0
20260507113412 25 0 0.0 0.0 0.00 0.00 0.00 30 1014.0
20260507111850 25 0 0.0 0.0 0.00 0.00 0.00 30 1014.0
20260507110350 25 0 0.0 0.0 0.00 0.00 0.00 30 1014.0
20260507104850 25 330 4.8 0.0 0.00 0.00 0.00 30 1014.0
20260507103350 25 330 4.8 0.0 0.00 0.00 0.00 30 1014.0
20260507101850 25 4.8 0.0 0.00 0.00 0.00 28 1015.0
20260507100351 25 4.8 0.0 0.00 0.00 0.00 28 1015.0
20260507094851 23 60 9.7 0.0 0.00 0.00 0.00 29 1015.0
20260507093351 23 60 9.7 0.0 0.00 0.00 0.00 29 1015.0
20260507091852 22 100 4.8 0.0 0.00 0.00 0.00 41 1015.0
20260507090351 22 100 4.8 0.0 0.00 0.00 0.00 41 1015.0
20260507084850 20 40 4.8 0.0 0.00 0.00 0.00 49 1015.0
20260507083351 20 40 4.8 0.0 0.00 0.00 0.00 49 1015.0
20260507081851 18 60 8.0 0.0 0.00 0.00 0.00 49 1016.0
20260507080351 18 60 8.0 0.0 0.00 0.00 0.00 49 1016.0
20260507074851 18 100 12.9 0.0 0.00 0.00 0.00 52 1016.0
20260507073350 18 100 12.9 0.0 0.00 0.00 0.00 52 1016.0
20260507071851 17 100 9.7 0.0 0.00 0.00 0.00 56 1016.0
20260507070350 17 100 9.7 0.0 0.00 0.00 0.00 56 1016.0
20260507064850 16 100 9.7 0.0 0.00 0.00 0.00 59 1016.0
20260507063350 16 100 9.7 0.0 0.00 0.00 0.00 59 1016.0
20260507061900 13 110 11.3 0.0 0.00 0.00 0.00 67 1016.0
20260507060350 13 110 11.3 0.0 0.00 0.00 0.00 67 1016.0
20260507054850 12 3.2 0.0 0.00 0.00 0.00 72 1016.0
20260507053358 12 3.2 0.0 0.00 0.00 0.00 72 1016.0
20260507051851 11 1.6 0.0 0.00 0.00 0.00 77 1016.0
20260507050350 11 1.6 0.0 0.00 0.00 0.00 77 1016.0
20260507044844 10 3.2 0.0 0.00 0.00 0.00 82 1016.0
20260507043350 10 3.2 0.0 0.00 0.00 0.00 82 1016.0
20260507041851 8 50 4.8 0.0 0.00 0.00 0.00 87 1016.0
20260507040350 8 50 4.8 0.0 0.00 0.00 0.00 87 1016.0
20260507034847 8 1.6 0.0 0.00 0.00 0.00 82 1016.0